This is the latest recevied weather packets stored in our database for station/object JR5YHL-13. If no packets are shown the sender has not sent any weather packets the latest 10 day(s).
| Time | Temp. | Humidity | Pressure | Rain* | Wind** | Luminosity | Snow |
|---|---|---|---|---|---|---|---|
| 1777576827 | 15.56° C | 99% | 1002.5 hPa | 0 mm | - | - | - |
| 1777576229 | 15.56° C | 99% | 1002.4 hPa | 0 mm | - | - | - |
| 1777575632 | 15.56° C | 99% | 1002.4 hPa | 0 mm | - | - | - |
| 1777575034 | 15.56° C | 99% | 1002.7 hPa | 0.25 mm | - | - | - |
| 1777574437 | 15.56° C | 99% | 1002.8 hPa | 0.51 mm | - | - | - |
| 1777573839 | 15.56° C | 99% | 1002.8 hPa | 0.51 mm | - | - | - |
| 1777573241 | 15.56° C | 99% | 1002.9 hPa | 0.51 mm | - | - | - |
| 1777572644 | 15.56° C | 99% | 1002.9 hPa | 0.76 mm | - | - | - |
| 1777572046 | 15.56° C | 99% | 1003.1 hPa | 0.76 mm | - | - | - |
| 1777571449 | 15.56° C | 99% | 1003.2 hPa | 0.76 mm | - | - | - |
| 1777570851 | 15.56° C | 99% | 1003.6 hPa | 0.76 mm | - | - | - |
| 1777570253 | 15.56° C | 99% | 1003.7 hPa | 1.02 mm | - | - | - |
| 1777569656 | 15.56° C | 99% | 1004 hPa | 2.54 mm | - | - | - |
| 1777569058 | 15.56° C | 99% | 1004.2 hPa | 5.59 mm | - | - | - |
| 1777568461 | 15.56° C | 99% | 1004.3 hPa | 6.1 mm | - | - | - |
| 1777567863 | 15.56° C | 99% | 1004.7 hPa | 6.35 mm | - | - | - |
| 1777567265 | 15.56° C | 99% | 1004.7 hPa | 6.35 mm | - | - | - |
| 1777566668 | 15.56° C | 99% | 1005.2 hPa | 7.11 mm | - | - | - |
| 1777566071 | 15.56° C | 99% | 1005.4 hPa | 5.84 mm | - | - | - |
| 1777565473 | 15.56° C | 99% | 1006.2 hPa | 3.05 mm | - | - | - |
| 1777564875 | 15.56° C | 99% | 1006.3 hPa | 2.79 mm | - | - | - |
| 1777564278 | 15.56° C | 99% | 1006.7 hPa | 2.54 mm | - | - | - |
| 1777563680 | 15.56° C | 99% | 1007 hPa | 2.54 mm | - | - | - |
| 1777563083 | 15.56° C | 99% | 1007.2 hPa | 2.03 mm | - | - | - |
| 1777562485 | 15.56° C | 99% | 1007.3 hPa | 2.03 mm | - | - | - |
* Rain latest hour (hover to see other rain measurements)
** Current wind speed in m/s (hover to see current wind gust speed)